Regional Weather Roundup
Issued by NWS

Home | Current Version | Previous Version | Text Only | Print | Product List | Glossary On
Versions: 1 2 3 4 5 6 7 8 9 10 11 12 13 14 15 16 17 18 19 20 21 22 23 24 25 26 27 28 29 30 31 32 33 34 35 36 37 38 39 40 41 42 43 44 45 46 47 48 49 50
000
ASUS43 KBIS 272110
RWRND

NORTH DAKOTA REGIONAL WEATHER ROUNDUP
NATIONAL WEATHER SERVICE BISMARCK ND
400 PM CDT TUE SEP 27 2016

NOTE: "FAIR" INDICATES FEW OR NO CLOUDS BELOW 12,000 FEET WITH NO
SIGNIFICANT WEATHER AND/OR OBSTRUCTIONS TO VISIBILITY.


NDZ001>003-009>011-017-272200-
NORTHWEST NORTH DAKOTA

CITY           SKY/WX    TMP DP  RH WIND       PRES   REMARKS
WILLISTON      SUNNY     78  50  37 VRB3      29.92S
MINOT          SUNNY     71  39  31 VRB3      29.93F
MINOT AFB      SUNNY     70  41  35 VRB2      29.92F
$$

NDZ018>021-031>035-040>046-272200-
SOUTHWEST NORTH DAKOTA

CITY           SKY/WX    TMP DP  RH WIND       PRES   REMARKS
BISMARCK       SUNNY     73  43  33 NE8       29.93F
DICKINSON      SUNNY     77  44  30 CALM      29.93F HAZE
GARRISON         N/A     70  43  37 S6        29.93F
HETTINGER ARPT SUNNY     80  45  28 NW10      29.96F
$$

NDZ004>008-012>016-024-026-027-054-272200-
NORTHEAST NORTH DAKOTA

CITY           SKY/WX    TMP DP  RH WIND       PRES   REMARKS
GRAND FORKS    MOSUNNY   59  44  57 N17G24    29.89S
GRND FRKS AFB  SUNNY     60  44  54 N15       29.89S
DEVILS LAKE    SUNNY     64  33  31 N15       29.93R
$$

NDZ022-023-025-028>030-036>039-047>053-272200-
SOUTHEAST NORTH DAKOTA

CITY           SKY/WX    TMP DP  RH WIND       PRES   REMARKS
FARGO          SUNNY     64  41  42 N14       29.87R
JAMESTOWN      SUNNY     66  29  24 N14       29.90F
$$




USA.gov is the U.S. government's official web portal to all federal, state and local government web resources and services.